CUSAT 2 & FALCON 9 R/B  
1 39271U 13055G   20094.82240084  .00007392  00000-0  17723-3 0  9993
2 39271  80.9694 347.2469 0592132  34.6260 329.2028 14.47330875339933
SL-4 R/B                
1 39679U 14021B   20094.34764679  .00000331  00000-0  34360-4 0  9990
2 39679  51.6149  95.9524 0172528  45.6361 315.8596 15.06334743328024
ALOS-2                  
1 39766U 14029A   20094.91210339  .00000101  00000-0  20463-4 0  9991
2 39766  97.9188 192.5810 0001575  89.3471 270.7915 14.79475107316670
SL-27 R/B               
1 40354U 14084B   20094.82392763  .00000742  00000-0  19420-4 0  9991
2 40354  74.7389 182.4797 0036777  47.5995 312.8319 15.40112779296644
YAOGAN 29               
1 41038U 15069A   20094.82131581 -.00000001  00000-0  67475-5 0  9997
2 41038  98.0063  82.9358 0002106 103.4819 256.6626 14.80441219235236
ASTRO-H (HITOMI)        
1 41337U 16012A   20094.80245156  .00000230  00000-0  11757-4 0  9994
2 41337  31.0049 123.0734 0012363  53.2377 306.9391 14.98666103226295
SHENZHOU-11 MODULE      
1 41868U 16061G   20094.90988925  .00036768  87497-5  11368-3 0  9998
2 41868  42.7889 245.8514 0013526 324.6702 172.5098 15.91917013194167
HXMT (HUIYAN)           
1 42758U 17034A   20094.84962935  .00000132  00000-0  21989-4 0  9991
2 42758  43.0177  85.2516 0012244 279.8510 151.0690 15.08788294154602
CZ-2C R/B               
1 43521U 18054D   20094.81305271  .00000679  00000-0  38857-4 0  9992
2 43521  35.1536 279.9408 0082864 179.9415 180.1319 15.10946445 97854
AEOLUS                  
1 43600U 18066A   20094.75515096  .00033285  00000-0  13065-3 0  9996
2 43600  96.7225 102.2658 0005983  97.7866 262.4086 15.86855069 93528
SAOCOM 1A               
1 43641U 18076A   20094.81939208 -.00000003  00000-0  61341-5 0  9999
2 43641  97.8885 281.9980 0001441  81.3724 278.7656 14.82149921 80546
CREW DRAGON DEMO-1 DEB  
1 44064U 19011B   20094.78066910  .00015413  00000-0  17039-3 0  9999
2 44064  51.6398 330.3570 0004779 129.8583 230.2828 15.63231715 61226
